SCP
0 0 0 0 0 0 0 0 0 0 0 0 0 0 0 0 0 0 0 0 0 0 0 0 0 0 0 0 0 0 0 0 0 0 0 0 0 0
0 0 0 0 0 0 0 0 0 0 0 0 0 0 0 0 0 0 0 0 0 0 -0 0 0 0 0 0 0 0 0 0 0 0 0 0 0 0
0 0 0 0 0 0 0 0 0 0 0 0 0 0 0 0 0 0 0 0 0 0 0 0 0 0 0 0 0 0 0 0 0 0 0 0 0 0
0 0 0 0 0 0 0 0 0 0 0 0 0 0 0 0 0 0 0 0 0 0 0 0 0 0 0 0 0 0 0 0 0 0 0 0 0 0
0 0 0 0 0 0 0 0 0 0 0 0 0 0 0 0 0 0 0 0 0 0 0 0 0 0 0 0 0 0 0 0 0 0 0 0 0 0
0 0 0 0 0 0 0 0 0 0 0 0 0 0 0 0 0 0 0 0 0 0 0 0 0 0 0 0 0 0 0 0 0 0 0 0 0 0
0 0 0 0 0 0 0 0 0 0 0 0 0 0 0 0 0 0 0 0 0 0 0 0 0 0 0 0 0 0 0 0 0 0 -0 0 0 -0
0 0 0 0 0 0 0 0 0 0 0 0 0 0 0 0 0 0 0 0 0 0 0 0 0 0 0 0 0 0 0 0 0 0 0 -0 -0 0
0 0 0 0 0 0 0 0 0 0 0 0 0 0 0 0 0 0 0 0 0 0 0 0 0 0 0 0 0 0 0 0 -0 -0 -0 0 0 0
0 0 0 0 0 0 0 0 0 0 0 0 0 0 0 0 -0 -0 -0 -0 0 0 0 0 0 0 0 0 -0 0 -0 -0 -0 -0 0 0 0 0
0 0 0 0 0 0 0 0 0 0 -0 -0 -0 0 0 -0 -0 0 0 0 -0 -0 -0 0 0 -0 0 0 -0 -0 -0 -0 -0 0 0 0 0 0
0 0 0 0 0 0 0 0 -0 -0 0 0 0 0 0 0 -0 0 0 0 0 0 0 0 -0 0 0 -0 -0 -0 -0 0 0 0 0 0 -0 0
0 0 0 0 -0 -0 -0 0 0 0 0 0 0 0 0 0 0 0 0 0 0 0 0 0 -0 0 0 0 -0 -0 0 0 0 0 0 0 0 0
0 0 0 -0 -0 -0 -0 -0 0 0 0 0 0 0 0 0 0 0 0 0 0 0 -0 0 0 0 0 0 0 0 0 0 0 0 0 0 0 0
0 -0 -0 -0 -0 -0 -0 -0 0 0 0 0 0 0 0 0 0 0 0 0 0 0 0 0 0 0 0 0 0 0 0 0 0 0 0 0 0 0
0 0 -0 -0 -0 0 0 0 0 0 0 0 0 0 0 0 0 0 0 -0 0 0 0 0 0 0 0 0 0 0 0 0 0 0 0 0 0 0
-0 0 0 0 0 0 0 0 0 0 0 0 0 0 0 0 0 0 0 0 0 0 0 0 0 0 0 0 0 0 0 0 0 0 0 0 0 0
-0 0 0 0 0 0 0 0 0 0 0 0 0 0 0 0 0 0 0 0 0 0 0 0 0 0 0 0 0 0 0 0 0 0 0 0 0 0
0 0 0 0 0 0 0 0 0 0 0 0 0 0 0 0 0 0 0 0 0 0 0 0 0 0 0 0 0 0 0 0 0 0 0 0 0 0
0 0 0 0 0 0 0 0 0 0 0 0 0 0 0 0 0 0 0 0 0 0 0 0 0 0 0 0 0 0 0 0 0 0 0 0 0 0
0 0 0 0 0 0 0 0 0 0 0 0 0 0 0 0 0 0 0 0 0 0 0 0 0 0 0 0 0 0 0 0 0 0 0 0 0 0
0 0 0 0 0 0 0 0 0 0 0 0 0 0 0 0 0 0 0 0 0 0 0 0 0 0 0 0 0 0 0 0 0 -0 -0 0 0 0
0 0 0 0 0 0 0 0 0 0 0 0 0 0 -0 0 0 0 0 0 0 0 0 0 0 0 0 0 0 0 0 0 0 0 0 -0 -0 -0
Wind_Speed_500mb
7 13 16 13 22 28 36 36 36 47 36 36 42 44 46 46 34 28 30 42 46 44 67 77 81 61 57 54 59 56 45 41 42 44 46 42 39 39
7 14 21 26 33 34 29 32 33 33 33 40 48 52 46 53 62 71 70 74 81 86 80 64 65 64 60 54 58 56 45 42 42 47 49 49 47 44
18 22 26 26 29 31 30 40 46 52 53 52 43 36 47 55 61 70 73 64 67 66 68 73 70 68 67 67 60 49 46 41 41 47 50 51 51 50
21 24 23 22 29 35 38 37 37 35 38 48 59 62 64 65 63 66 69 71 73 71 58 46 44 48 48 39 41 45 40 39 42 44 45 42 43 44
22 30 34 35 40 44 42 47 50 55 59 63 59 46 59 51 45 44 41 37 37 35 37 32 26 20 23 24 28 30 32 32 33 33 35 38 46 45
28 34 40 40 43 46 47 52 54 60 63 57 48 45 41 47 45 43 45 40 37 27 25 31 27 24 21 23 20 22 24 22 25 29 32 36 37 36
29 35 40 42 47 52 49 49 49 45 40 39 43 43 44 45 43 41 38 39 24 19 10 13 15 18 18 19 24 22 20 22 28 27 29 29 27 26
32 34 32 33 43 45 43 36 34 39 39 34 34 36 38 37 35 36 33 33 24 2 6 8 18 19 14 21 10 16 19 24 23 26 26 20 18 21
36 41 42 45 39 33 38 23 31 34 30 29 29 33 38 36 38 33 33 26 30 17 18 17 17 12 14 8 12 15 13 18 26 30 33 30 28 23
33 35 28 33 36 43 32 18 28 23 24 24 29 31 32 34 28 24 29 29 24 14 8 18 10 9 13 10 8 13 20 25 31 35 33 26 23 22
25 26 25 34 38 30 21 20 21 21 19 22 20 19 18 15 20 19 17 6 11 10 3 7 9 16 4 4 13 22 25 33 34 27 21 14 13 14
19 24 31 36 30 21 22 20 17 21 24 31 32 30 22 19 14 17 11 6 8 11 11 9 11 13 3 6 17 23 28 20 23 20 11 7 10 7
20 22 28 34 24 20 17 17 23 25 29 38 32 31 23 10 6 8 8 10 10 9 8 6 12 13 11 9 17 26 19 14 17 27 33 29 23 22
21 23 25 28 24 25 17 14 19 23 33 35 30 28 20 17 9 4 7 5 9 12 12 15 18 21 9 6 11 19 17 16 14 19 28 31 32 34
29 29 27 23 22 18 19 18 23 29 37 36 38 31 23 20 18 15 11 6 5 3 5 9 6 3 5 5 9 16 13 19 18 20 24 25 28 27
34 38 42 34 27 29 27 26 28 28 33 42 31 27 29 26 20 16 11 13 11 12 12 12 8 6 10 7 8 9 7 18 32 38 41 43 45 45
36 41 48 49 48 45 39 33 32 34 43 40 34 36 30 28 27 25 27 27 35 31 30 25 22 15 17 26 32 30 31 36 41 48 51 55 54 52
37 42 44 44 42 40 37 35 33 39 41 34 31 32 32 27 27 24 22 26 27 26 28 30 34 39 43 43 40 37 39 41 42 45 51 52 53 49
49 46 42 38 35 33 30 33 35 34 31 34 34 33 30 27 30 29 29 30 29 26 22 27 43 56 63 62 56 49 47 47 48 48 49 51 51 45
50 51 47 44 41 38 37 36 36 36 35 32 36 37 37 33 36 39 36 35 36 36 36 38 43 44 48 51 50 35 29 36 37 40 41 44 48 40
48 50 49 49 48 46 44 41 38 39 38 38 31 28 30 29 35 38 42 42 39 39 42 40 37 37 40 43 44 38 37 33 28 31 33 36 39 41
45 47 47 47 49 48 48 45 39 32 34 34 38 40 39 40 42 43 46 50 50 44 42 40 39 34 33 34 37 35 33 27 23 19 23 22 19 43
44 50 54 51 46 40 41 46 47 39 38 41 41 43 47 44 43 41 51 38 31 33 39 34 34 37 43 45 48 50 53 57 57 63 70 70 73 73
Wind_Direction_500mb
286 292 293 303 269 276 277 282 291 289 297 288 287 300 298 293 283 283 278 266 261 268 290 301 294 281 277 286 294 292 290 273 266 262 268 274 272 272
300 275 278 286 292 295 281 290 283 302 310 298 292 291 281 284 281 283 278 287 289 288 291 293 286 282 272 286 291 290 284 270 265 265 270 274 274 272
299 293 290 296 290 283 281 275 286 296 307 302 303 303 290 287 287 291 295 287 292 288 291 293 281 278 277 280 280 280 280 276 272 272 272 271 270 268
306 296 286 280 276 281 289 289 287 281 291 297 294 293 296 296 296 293 289 287 286 289 289 289 290 283 280 276 275 277 281 273 279 279 276 271 270 272
305 298 293 296 294 293 295 293 291 289 298 301 302 306 306 315 316 307 300 297 300 292 289 295 295 278 275 294 285 280 279 276 277 278 273 277 279 271
319 316 301 299 295 296 296 296 298 301 306 309 312 314 314 314 307 309 305 295 287 285 266 286 285 285 290 300 285 281 279 277 282 291 282 276 276 262
296 291 301 308 304 304 306 309 316 321 325 317 310 307 309 316 316 317 312 322 283 281 292 292 293 306 295 297 285 275 272 282 299 291 285 287 267 258
293 301 312 309 305 311 312 319 332 330 325 313 305 305 309 316 318 310 313 323 319 124 308 295 314 310 300 286 292 292 292 290 282 287 291 293 290 261
306 309 315 312 319 328 322 334 321 327 312 307 310 308 309 309 309 304 302 298 306 317 278 303 324 318 323 335 316 311 310 288 282 287 291 284 272 270
322 329 326 322 323 321 331 347 329 333 328 322 307 305 304 304 305 299 294 295 292 285 278 298 328 309 357 351 333 311 316 320 305 302 293 279 258 255
330 324 324 325 330 335 336 340 340 338 318 317 339 360 351 346 339 338 352 328 348 6 356 315 319 337 157 339 325 336 324 321 323 323 312 290 244 230
357 338 328 326 330 350 359 4 355 5 20 24 9 3 357 359 347 8 8 358 356 2 41 13 25 27 77 11 341 330 331 344 3 357 63 52 148 172
355 341 331 335 359 11 15 12 22 21 29 15 1 352 353 332 316 322 321 318 326 324 7 350 330 354 5 343 335 347 4 33 47 70 90 91 93 99
0 354 357 10 18 31 39 52 44 35 23 1 17 17 16 20 15 294 278 286 283 283 269 288 293 309 325 40 357 1 31 49 71 83 88 94 98 96
31 16 11 13 17 40 53 51 51 40 15 19 18 22 24 28 40 53 55 57 53 41 305 275 310 121 116 51 56 67 71 67 83 98 102 102 101 102
36 39 42 40 55 54 54 62 53 27 30 25 39 47 46 47 56 54 73 36 62 57 50 56 74 137 134 63 86 84 80 105 101 105 103 103 102 100
44 44 48 51 52 54 58 55 52 49 37 35 49 35 45 62 58 62 64 74 74 71 73 77 90 102 107 99 99 98 102 107 109 110 107 101 96 91
42 45 46 47 54 55 53 54 46 34 30 36 42 43 57 62 63 60 65 76 78 83 83 92 102 105 101 93 94 97 102 104 106 108 106 100 93 90
51 49 43 48 51 49 48 44 41 33 44 42 54 64 60 71 61 61 70 73 77 79 93 110 115 108 99 91 88 86 96 102 104 101 97 92 92 88
50 49 48 46 45 46 42 42 49 52 53 56 60 59 64 72 74 71 71 75 80 86 95 103 106 101 99 95 92 85 87 87 87 87 90 94 91 91
50 50 52 55 54 55 55 58 61 58 64 58 57 59 61 71 71 75 74 72 77 83 83 85 93 95 93 96 94 92 86 79 77 86 92 92 103 102
50 53 58 57 56 56 54 53 57 59 52 54 66 69 73 80 79 79 72 69 73 79 83 84 84 86 94 96 95 94 90 91 92 90 89 82 103 104
54 63 61 59 56 48 36 56 51 58 65 76 75 71 69 70 79 70 74 78 78 76 73 82 88 88 92 93 97 98 100 97 99 100 97 95 92 89
Wind_Speed_850mb
7 13 16 13 22 28 36 36 36 47 36 36 42 44 46 46 34 28 30 42 46 44 67 77 81 61 57 54 59 56 45 41 42 44 46 42 39 39
7 14 21 26 33 34 29 32 33 33 33 40 48 52 46 53 62 71 70 74 81 86 80 64 65 64 60 54 58 56 45 42 42 47 49 49 47 44
18 22 26 26 29 31 30 40 46 52 53 52 43 36 47 55 61 70 73 64 67 66 68 73 70 68 67 67 60 49 46 41 41 47 50 51 51 50
21 24 23 22 29 35 38 37 37 35 38 48 59 62 64 65 63 66 69 71 73 71 58 46 44 48 48 39 41 45 40 39 42 44 45 42 43 44
22 30 34 35 40 44 42 47 50 55 59 63 59 46 59 51 45 44 41 37 37 35 37 32 26 20 23 24 28 30 32 32 33 33 35 38 46 45
28 34 40 40 43 46 47 52 54 60 63 57 48 45 41 47 45 43 45 40 37 27 25 31 27 24 21 23 20 22 24 22 25 29 32 36 37 36
29 35 40 42 47 52 49 49 49 45 40 39 43 43 44 45 43 41 38 39 24 19 10 13 15 18 18 19 24 22 20 22 28 27 29 29 27 26
32 34 32 33 43 45 43 36 34 39 39 34 34 36 38 37 35 36 33 33 24 2 6 8 18 19 14 21 10 16 19 24 23 26 26 20 18 21
36 41 42 45 39 33 38 23 31 34 30 29 29 33 38 36 38 33 33 26 30 17 18 17 17 12 14 8 12 15 13 18 26 30 33 30 28 23
33 35 28 33 36 43 32 18 28 23 24 24 29 31 32 34 28 24 29 29 24 14 8 18 10 9 13 10 8 13 20 25 31 35 33 26 23 22
25 26 25 34 38 30 21 20 21 21 19 22 20 19 18 15 20 19 17 6 11 10 3 7 9 16 4 4 13 22 25 33 34 27 21 14 13 14
19 24 31 36 30 21 22 20 17 21 24 31 32 30 22 19 14 17 11 6 8 11 11 9 11 13 3 6 17 23 28 20 23 20 11 7 10 7
20 22 28 34 24 20 17 17 23 25 29 38 32 31 23 10 6 8 8 10 10 9 8 6 12 13 11 9 17 26 19 14 17 27 33 29 23 22
21 23 25 28 24 25 17 14 19 23 33 35 30 28 20 17 9 4 7 5 9 12 12 15 18 21 9 6 11 19 17 16 14 19 28 31 32 34
29 29 27 23 22 18 19 18 23 29 37 36 38 31 23 20 18 15 11 6 5 3 5 9 6 3 5 5 9 16 13 19 18 20 24 25 28 27
34 38 42 34 27 29 27 26 28 28 33 42 31 27 29 26 20 16 11 13 11 12 12 12 8 6 10 7 8 9 7 18 32 38 41 43 45 45
36 41 48 49 48 45 39 33 32 34 43 40 34 36 30 28 27 25 27 27 35 31 30 25 22 15 17 26 32 30 31 36 41 48 51 55 54 52
37 42 44 44 42 40 37 35 33 39 41 34 31 32 32 27 27 24 22 26 27 26 28 30 34 39 43 43 40 37 39 41 42 45 51 52 53 49
49 46 42 38 35 33 30 33 35 34 31 34 34 33 30 27 30 29 29 30 29 26 22 27 43 56 63 62 56 49 47 47 48 48 49 51 51 45
50 51 47 44 41 38 37 36 36 36 35 32 36 37 37 33 36 39 36 35 36 36 36 38 43 44 48 51 50 35 29 36 37 40 41 44 48 40
48 50 49 49 48 46 44 41 38 39 38 38 31 28 30 29 35 38 42 42 39 39 42 40 37 37 40 43 44 38 37 33 28 31 33 36 39 41
45 47 47 47 49 48 48 45 39 32 34 34 38 40 39 40 42 43 46 50 50 44 42 40 39 34 33 34 37 35 33 27 23 19 23 22 19 43
44 50 54 51 46 40 41 46 47 39 38 41 41 43 47 44 43 41 51 38 31 33 39 34 34 37 43 45 48 50 53 57 57 63 70 70 73 73
Wind_Direction_850mb
286 292 293 303 269 276 277 282 291 289 297 288 287 300 298 293 283 283 278 266 261 268 290 301 294 281 277 286 294 292 290 273 266 262 268 274 272 272
300 275 278 286 292 295 281 290 283 302 310 298 292 291 281 284 281 283 278 287 289 288 291 293 286 282 272 286 291 290 284 270 265 265 270 274 274 272
299 293 290 296 290 283 281 275 286 296 307 302 303 303 290 287 287 291 295 287 292 288 291 293 281 278 277 280 280 280 280 276 272 272 272 271 270 268
306 296 286 280 276 281 289 289 287 281 291 297 294 293 296 296 296 293 289 287 286 289 289 289 290 283 280 276 275 277 281 273 279 279 276 271 270 272
305 298 293 296 294 293 295 293 291 289 298 301 302 306 306 315 316 307 300 297 300 292 289 295 295 278 275 294 285 280 279 276 277 278 273 277 279 271
319 316 301 299 295 296 296 296 298 301 306 309 312 314 314 314 307 309 305 295 287 285 266 286 285 285 290 300 285 281 279 277 282 291 282 276 276 262
296 291 301 308 304 304 306 309 316 321 325 317 310 307 309 316 316 317 312 322 283 281 292 292 293 306 295 297 285 275 272 282 299 291 285 287 267 258
293 301 312 309 305 311 312 319 332 330 325 313 305 305 309 316 318 310 313 323 319 124 308 295 314 310 300 286 292 292 292 290 282 287 291 293 290 261
306 309 315 312 319 328 322 334 321 327 312 307 310 308 309 309 309 304 302 298 306 317 278 303 324 318 323 335 316 311 310 288 282 287 291 284 272 270
322 329 326 322 323 321 331 347 329 333 328 322 307 305 304 304 305 299 294 295 292 285 278 298 328 309 357 351 333 311 316 320 305 302 293 279 258 255
330 324 324 325 330 335 336 340 340 338 318 317 339 360 351 346 339 338 352 328 348 6 356 315 319 337 157 339 325 336 324 321 323 323 312 290 244 230
357 338 328 326 330 350 359 4 355 5 20 24 9 3 357 359 347 8 8 358 356 2 41 13 25 27 77 11 341 330 331 344 3 357 63 52 148 172
355 341 331 335 359 11 15 12 22 21 29 15 1 352 353 332 316 322 321 318 326 324 7 350 330 354 5 343 335 347 4 33 47 70 90 91 93 99
0 354 357 10 18 31 39 52 44 35 23 1 17 17 16 20 15 294 278 286 283 283 269 288 293 309 325 40 357 1 31 49 71 83 88 94 98 96
31 16 11 13 17 40 53 51 51 40 15 19 18 22 24 28 40 53 55 57 53 41 305 275 310 121 116 51 56 67 71 67 83 98 102 102 101 102
36 39 42 40 55 54 54 62 53 27 30 25 39 47 46 47 56 54 73 36 62 57 50 56 74 137 134 63 86 84 80 105 101 105 103 103 102 100
44 44 48 51 52 54 58 55 52 49 37 35 49 35 45 62 58 62 64 74 74 71 73 77 90 102 107 99 99 98 102 107 109 110 107 101 96 91
42 45 46 47 54 55 53 54 46 34 30 36 42 43 57 62 63 60 65 76 78 83 83 92 102 105 101 93 94 97 102 104 106 108 106 100 93 90
51 49 43 48 51 49 48 44 41 33 44 42 54 64 60 71 61 61 70 73 77 79 93 110 115 108 99 91 88 86 96 102 104 101 97 92 92 88
50 49 48 46 45 46 42 42 49 52 53 56 60 59 64 72 74 71 71 75 80 86 95 103 106 101 99 95 92 85 87 87 87 87 90 94 91 91
50 50 52 55 54 55 55 58 61 58 64 58 57 59 61 71 71 75 74 72 77 83 83 85 93 95 93 96 94 92 86 79 77 86 92 92 103 102
50 53 58 57 56 56 54 53 57 59 52 54 66 69 73 80 79 79 72 69 73 79 83 84 84 86 94 96 95 94 90 91 92 90 89 82 103 104
54 63 61 59 56 48 36 56 51 58 65 76 75 71 69 70 79 70 74 78 78 76 73 82 88 88 92 93 97 98 100 97 99 100 97 95 92 89